TimeCDT,TemperatureF,Dew PointF,Humidity,Sea Level PressureIn,VisibilityMPH,Wind Direction,Wind SpeedMPH,Gust SpeedMPH,PrecipitationIn,Events,Conditions,WindDirDegrees,DateUTC
12:53 AM,69.1,62.1,78,30.07,10.0,ESE,6.9,-,N/A,,Overcast,110,2013-08-18 05:53:00
1:53 AM,69.1,62.1,78,30.07,10.0,ESE,4.6,-,N/A,,Overcast,120,2013-08-18 06:53:00
2:53 AM,68.0,61.0,78,30.06,10.0,SSE,6.9,-,N/A,,Overcast,150,2013-08-18 07:53:00
3:53 AM,66.9,61.0,81,30.05,10.0,SSE,8.1,-,N/A,,Scattered Clouds,160,2013-08-18 08:53:00
4:53 AM,64.9,61.0,87,30.05,10.0,SSE,4.6,-,N/A,,Clear,160,2013-08-18 09:53:00
5:53 AM,63.0,60.1,90,30.05,10.0,SSE,6.9,-,N/A,,Clear,150,2013-08-18 10:53:00
6:53 AM,62.1,60.1,93,30.06,10.0,SE,4.6,-,N/A,,Scattered Clouds,140,2013-08-18 11:53:00
7:53 AM,63.0,60.1,90,30.06,10.0,SE,5.8,-,N/A,,Scattered Clouds,140,2013-08-18 12:53:00
8:53 AM,66.9,61.0,81,30.07,10.0,SSE,9.2,-,N/A,,Partly Cloudy,160,2013-08-18 13:53:00
9:53 AM,72.0,62.1,71,30.06,10.0,SSE,13.8,20.7,N/A,,Partly Cloudy,160,2013-08-18 14:53:00
10:53 AM,73.9,63.0,68,30.05,10.0,SSE,16.1,19.6,N/A,,Clear,160,2013-08-18 15:53:00
11:53 AM,78.1,64.0,62,30.04,10.0,South,10.4,20.7,N/A,,Scattered Clouds,170,2013-08-18 16:53:00
12:53 PM,79.0,64.0,60,30.03,10.0,South,12.7,24.2,N/A,,Mostly Cloudy,180,2013-08-18 17:53:00
1:53 PM,80.1,64.0,58,30.01,10.0,South,15.0,20.7,N/A,,Overcast,180,2013-08-18 18:53:00
2:53 PM,80.1,64.0,58,30.01,10.0,South,10.4,-,N/A,,Overcast,170,2013-08-18 19:53:00
3:53 PM,80.1,64.0,58,29.98,10.0,SE,13.8,20.7,N/A,,Overcast,140,2013-08-18 20:53:00
4:53 PM,81.0,64.0,56,29.97,10.0,SE,13.8,24.2,N/A,,Overcast,140,2013-08-18 21:53:00
5:53 PM,81.0,64.0,56,29.96,10.0,SE,10.4,21.9,N/A,,Mostly Cloudy,140,2013-08-18 22:53:00
6:53 PM,80.1,64.0,58,29.96,10.0,SE,13.8,20.7,N/A,,Overcast,140,2013-08-18 23:53:00
7:53 PM,78.1,64.0,62,29.96,10.0,SE,11.5,-,N/A,,Overcast,140,2013-08-19 00:53:00
8:53 PM,77.0,64.0,64,30.00,10.0,SSE,11.5,-,N/A,,Overcast,150,2013-08-19 01:53:00
9:53 PM,75.0,63.0,66,30.01,10.0,SSE,10.4,-,N/A,,Partly Cloudy,150,2013-08-19 02:53:00
10:53 PM,72.0,63.0,73,30.03,10.0,SE,9.2,-,N/A,,Clear,140,2013-08-19 03:53:00
11:53 PM,70.0,63.0,78,30.04,10.0,SSE,6.9,-,N/A,,Clear,150,2013-08-19 04:53:00